Powrót do katalogu

CZ-6A DEB

AktywnySSO
NORAD 54404·DEBRIS·🇨🇳 China

Wystrzelony Nov 11, 2022 z Taiyuan Satellite Launch Center

Loading…

Następne Przeloty (najbliższe 24 godziny)

TLE

ŚwieżeSource: Space-Track

Epoka: Sep 14, 2026, 21:33 UTC

1 54404U 22151EC  26257.89827227  .00000625  00000-0  28847-3 0  9990
2 54404  98.7554 276.7058 0056072  85.7003 275.0580 14.23650649199056

Śledź CZ-6A DEB w czasie rzeczywistym z AllMySat

Download on the App Store